Regional Weather Roundup
Issued by NWS

Home | Current Version | Previous Version | Graphics & Text | Print | Product List | Glossary On
Versions: 1 2 3 4 5 6 7 8 9 10 11 12 13 14 15 16 17 18 19 20 21 22 23 24 25 26 27 28 29 30 31 32 33 34 35 36 37 38 39 40 41 42 43 44 45 46 47 48 49 50
000
ASUS43 KOAX 221702
RWRNE

WEATHER ROUNDUP FOR NEBRASKA
NATIONAL WEATHER SERVICE OMAHA NE
1200 PM CDT SAT JUL 22 2017

NOTES: SATELLITE DATA IS BEING USED TO AUGMENT CLOUD COVER ABOVE
       12000 FEET.
       "FAIR" INDICATES FEW OR NO CLOUDS BELOW 12,000 FEET WITH NO
       SIGNIFICANT WEATHER AND/OR OBSTRUCTIONS TO VISIBILITY.


NEZ001>004-019>022-054>056-221800-
NEBRASKA PANHANDLE

CITY           SKY/WX    TMP DP  RH WIND       PRES   REMARKS
SCOTTSBLUFF    SUNNY     84  56  38 VRB5      30.11S
ALLIANCE       CLOUDY    86  54  33 S10       30.11R
CHADRON        MOSUNNY   85  50  29 CALM      30.06R
GORDON         FAIR      86  52  30 SE5       30.08S
KIMBALL        SUNNY     85  51  30 SE14G20   30.19S
SIDNEY         CLOUDY    86  52  30 E12G20    30.17R
$$

NEZ057>060-069>072-079>082-221800-
SOUTHWEST NEBRASKA

CITY           SKY/WX    TMP DP  RH WIND       PRES   REMARKS
NORTH PLATTE   CLOUDY    79  67  66 NW9       30.05R
IMPERIAL       CLOUDY    77  57  50 NW6       30.10R
LEXINGTON      PTSUNNY   84  68  59 NE7       29.98S
MCCOOK         CLOUDY    93  56  28 NE14      30.01R HX  91
OGALLALA       CLOUDY    78  64  63 CALM      30.10R
$$

NEZ005>010-023>029-035>040-094-221800-
NORTH CENTRAL NEBRASKA

CITY           SKY/WX    TMP DP  RH WIND       PRES   REMARKS
VALENTINE      CLOUDY    84  60  44 N8        30.03R
AINSWORTH      CLOUDY    78  69  74 CALM      30.04R
BROKEN BOW     MOSUNNY   85  66  53 NE7       29.99R
O`NEILL        CLOUDY    79  77  92 NW7       29.99R
ORD            PTSUNNY   88  63  43 NE10      29.95R
THEDFORD       LGT RAIN  78  67  66 NW3       30.09R
$$

NEZ041-046>049-061>064-073>077-083>087-221800-
SOUTH CENTRAL NEBRASKA

CITY           SKY/WX    TMP DP  RH WIND       PRES   REMARKS
GRAND ISLAND   LGT RAIN  80  76  87 NE13      29.92S
AURORA         SUNNY     83  77  82 NW8       29.95R HX  92
HASTINGS       MOSUNNY   84  74  71 N13       29.95R HX  91
HEBRON         SUNNY     91  77  61 NE7       29.88R HX 104
HOLDREGE       MOSUNNY   84  70  64 NE14      29.96S
KEARNEY        CLOUDY    83  73  72 NE13      29.96R
YORK           MOSUNNY   82  77  83 NE7       29.91F HX  91
$$

NEZ011>018-030>034-042>045-221800-
NORTHEAST NEBRASKA

CITY           SKY/WX    TMP DP  RH WIND       PRES   REMARKS
NORFOLK        SUNNY     87  69  54 N16       29.92R HX  91
ALBION         SUNNY     90  71  54 NE13      29.93R HX  96
BLAIR          MOSUNNY   84  76  76 NW8       29.88S HX  94
COLUMBUS       SUNNY     89  74  60 NE13      29.90S HX  98
FREMONT        SUNNY     85  76  74 NW8       29.89R HX  93
TEKAMAH        MOSUNNY   84  75  74 N6        29.87R HX  92
WAYNE          CLOUDY    86  76  73 N13G18    29.90F HX  96
$$

NEZ050>053-065>068-078-088>093-221800-
SOUTHEAST NEBRASKA

CITY           SKY/WX    TMP DP  RH WIND       PRES   REMARKS
LINCOLN        MOSUNNY   86  78  77 N12       29.88R HX  98
OMAHA EPPLEY   PTSUNNY   85  76  74 N10       29.85S HX  94
BEATRICE       MOSUNNY   89  80  75 N14       29.86R HX 106
NEBRASKA CITY  MOSUNNY   87  83  87 N6        29.85S HX 108
PLATTSMOUTH    MOSUNNY   85  78  81 NW7       29.86S HX  97
$$

NEZ044-045-051>053-067-221800-
OMAHA AREA

CITY           SKY/WX    TMP DP  RH WIND       PRES   REMARKS
OMAHA EPPLEY   PTSUNNY   85  76  74 N10       29.85S HX  94
BLAIR          MOSUNNY   84  76  76 NW8       29.88S HX  94
FREMONT        SUNNY     85  76  74 NW8       29.89R HX  93
MILLARD        SUNNY     88  79  74 NW5       29.86R HX 103
OFFUTT AFB     SUNNY     88  77  71 NW5       29.85S HX 100
PLATTSMOUTH    MOSUNNY   85  78  81 NW7       29.86S HX  97
WAHOO          FAIR      85  78  80 N5        29.88S HX  97
$$




USA.gov is the U.S. government's official web portal to all federal, state and local government web resources and services.